TimeEEST,TemperatureF,Dew PointF,Humidity,Sea Level PressureIn,VisibilityMPH,Wind Direction,Wind SpeedMPH,Gust SpeedMPH,PrecipitationIn,Events,Conditions,WindDirDegrees,DateUTC
12:20 AM,64.4,60.8,88,29.95,6.2,Calm,Calm,-,N/A,,Partly Cloudy,0,2012-10-04 21:20:00
12:50 AM,62.6,59.0,88,29.95,6.2,Variable,3.5,-,N/A,,Partly Cloudy,0,2012-10-04 21:50:00
1:20 AM,62.6,59.0,88,29.98,6.2,WNW,2.3,-,N/A,,Partly Cloudy,290,2012-10-04 22:20:00
1:50 AM,62.6,59.0,88,29.98,6.2,Variable,1.2,-,N/A,,Partly Cloudy,0,2012-10-04 22:50:00
2:20 AM,62.6,59.0,88,29.98,6.2,West,1.2,-,N/A,,Partly Cloudy,260,2012-10-04 23:20:00
2:50 AM,62.6,59.0,88,29.98,6.2,Variable,1.2,-,N/A,,Partly Cloudy,0,2012-10-04 23:50:00
3:20 AM,59.0,57.2,94,29.98,6.2,NW,3.5,-,N/A,,Partly Cloudy,310,2012-10-05 00:20:00
3:50 AM,59.0,55.4,88,29.95,6.2,West,4.6,-,N/A,,Partly Cloudy,280,2012-10-05 00:50:00
4:20 AM,59.0,57.2,94,29.95,6.2,West,4.6,-,N/A,,Partly Cloudy,280,2012-10-05 01:20:00
4:50 AM,60.8,57.2,88,29.98,6.2,WNW,3.5,-,N/A,,Partly Cloudy,290,2012-10-05 01:50:00
5:20 AM,60.8,57.2,88,29.98,6.2,West,3.5,-,N/A,,Partly Cloudy,280,2012-10-05 02:20:00
5:50 AM,57.2,55.4,94,29.98,-9999.0,WNW,3.5,-,N/A,,Clear,290,2012-10-05 02:50:00
6:20 AM,59.0,55.4,88,29.98,-9999.0,WNW,2.3,-,N/A,,Clear,290,2012-10-05 03:20:00
6:50 AM,57.2,53.6,88,29.98,-9999.0,Variable,2.3,-,N/A,,Clear,0,2012-10-05 03:50:00
7:20 AM,62.6,57.2,82,29.98,-9999.0,NW,1.2,-,N/A,,Clear,310,2012-10-05 04:20:00
7:50 AM,62.6,57.2,82,29.98,-9999.0,Variable,1.2,-,N/A,,Clear,0,2012-10-05 04:50:00
8:20 AM,64.4,57.2,77,29.98,-9999.0,Variable,1.2,-,N/A,,Clear,0,2012-10-05 05:20:00
8:50 AM,68.0,60.8,78,30.01,-9999.0,Variable,1.2,-,N/A,,Clear,0,2012-10-05 05:50:00
9:20 AM,69.8,60.8,73,30.01,-9999.0,Variable,2.3,-,N/A,,Clear,0,2012-10-05 06:20:00
9:50 AM,71.6,59.0,64,30.01,-9999.0,East,4.6,-,N/A,,Clear,80,2012-10-05 06:50:00
10:20 AM,75.2,59.0,57,30.01,-9999.0,Variable,3.5,-,N/A,,Clear,0,2012-10-05 07:20:00
10:50 AM,77.0,59.0,54,30.01,-9999.0,East,5.8,-,N/A,,Clear,100,2012-10-05 07:50:00
11:20 AM,77.0,59.0,54,30.01,6.2,NE,10.4,-,N/A,,Partly Cloudy,40,2012-10-05 08:20:00
11:50 AM,78.8,55.4,44,30.04,6.2,NE,10.4,-,N/A,,Partly Cloudy,40,2012-10-05 08:50:00
12:20 PM,78.8,57.2,47,30.04,6.2,NE,13.8,-,N/A,,Partly Cloudy,50,2012-10-05 09:20:00
12:50 PM,80.6,55.4,42,30.04,6.2,NE,18.4,-,N/A,,Partly Cloudy,40,2012-10-05 09:50:00
1:20 PM,80.6,55.4,42,30.01,6.2,NE,16.1,-,N/A,,Partly Cloudy,40,2012-10-05 10:20:00
1:50 PM,80.6,59.0,48,30.01,6.2,NE,16.1,-,N/A,,Partly Cloudy,50,2012-10-05 10:50:00
2:20 PM,80.6,59.0,48,30.01,6.2,NE,17.3,-,N/A,,Partly Cloudy,50,2012-10-05 11:20:00
2:50 PM,80.6,59.0,48,30.01,6.2,ENE,16.1,27.6,N/A,,Partly Cloudy,70,2012-10-05 11:50:00
3:20 PM,80.6,57.2,45,30.01,6.2,ENE,18.4,-,N/A,,Partly Cloudy,60,2012-10-05 12:20:00
3:50 PM,78.8,57.2,47,30.01,6.2,ENE,18.4,-,N/A,,Partly Cloudy,60,2012-10-05 12:50:00
4:20 PM,78.8,59.0,51,30.01,6.2,ENE,17.3,-,N/A,,Partly Cloudy,60,2012-10-05 13:20:00
4:50 PM,78.8,59.0,51,30.01,6.2,ENE,17.3,-,N/A,,Scattered Clouds,60,2012-10-05 13:50:00
5:20 PM,77.0,59.0,54,30.01,6.2,ENE,18.4,-,N/A,,Partly Cloudy,60,2012-10-05 14:20:00
5:50 PM,77.0,59.0,54,30.01,6.2,NE,16.1,-,N/A,,Partly Cloudy,40,2012-10-05 14:50:00
6:20 PM,75.2,59.0,57,30.04,6.2,NE,15.0,-,N/A,,Scattered Clouds,40,2012-10-05 15:20:00
6:50 PM,75.2,59.0,57,30.04,6.2,NE,13.8,-,N/A,,Scattered Clouds,40,2012-10-05 15:50:00
7:20 PM,73.4,59.0,61,30.04,6.2,NNE,8.1,-,N/A,,Partly Cloudy,20,2012-10-05 16:20:00
7:50 PM,73.4,59.0,61,30.04,6.2,Variable,1.2,-,N/A,,Partly Cloudy,0,2012-10-05 16:50:00
8:20 PM,71.6,59.0,64,30.06,6.2,North,1.2,-,N/A,,Partly Cloudy,10,2012-10-05 17:20:00
8:50 PM,71.6,59.0,64,30.06,6.2,North,5.8,-,N/A,,Partly Cloudy,10,2012-10-05 17:50:00
9:20 PM,71.6,59.0,64,30.06,6.2,NNW,3.5,-,N/A,,Partly Cloudy,330,2012-10-05 18:20:00
9:50 PM,69.8,59.0,68,30.06,6.2,SSW,2.3,-,N/A,,Partly Cloudy,210,2012-10-05 18:50:00
10:20 PM,69.8,57.2,64,30.06,6.2,West,3.5,-,N/A,,Partly Cloudy,270,2012-10-05 19:20:00
10:50 PM,68.0,57.2,68,30.06,6.2,Variable,3.5,-,N/A,,Partly Cloudy,0,2012-10-05 19:50:00
11:20 PM,66.2,55.4,68,30.06,6.2,NW,4.6,-,N/A,,Partly Cloudy,320,2012-10-05 20:20:00
11:50 PM,69.8,53.6,56,30.06,6.2,Variable,2.3,-,N/A,,Partly Cloudy,0,2012-10-05 20:50:00